GFSFLT2_925_thetae_147.txt.gz
Theta_e
289 289 289 289 289 288 288 288 287 287 287 290 291 292 292 292 292 292 293 293 293 293 294 294 295 296 296
290 289 289 289 288 288 288 287 287 287 288 289 290 291 291 291 291 292 292 291 291 292 292 292 293 294 295
290 289 288 288 288 288 287 287 287 288 287 289 289 289 290 290 291 291 291 291 290 290 290 291 292 292 293
289 289 288 288 287 287 288 287 288 288 287 287 287 288 289 290 289 289 289 289 288 289 289 290 291 291 292
288 288 288 288 287 288 287 288 288 287 287 287 287 287 287 288 288 287 286 287 287 288 289 290 290 290 291
288 288 289 288 288 288 288 288 289 287 286 287 287 287 287 287 287 286 287 287 288 288 289 289 289 289 290
288 288 289 289 288 288 288 288 289 288 286 287 287 287 287 287 286 286 287 287 287 288 288 288 289 289 289
289 290 291 290 290 290 290 288 287 286 286 287 287 287 287 286 286 285 286 286 287 287 287 288 288 288 287
293 292 292 290 289 288 288 287 287 287 288 287 287 286 286 285 285 284 284 285 286 287 286 286 287 287 286
289 290 290 290 289 289 287 287 287 288 288 287 287 285 286 284 283 283 283 283 284 285 285 285 285 286 285
289 289 289 289 288 289 289 288 289 288 288 286 284 284 284 285 284 283 283 283 283 282 282 283 283 284 284
290 288 288 287 287 287 288 288 289 288 288 287 285 285 284 284 284 283 283 282 282 282 282 282 282 283 284
289 288 288 289 288 288 288 288 288 288 287 286 286 285 284 283 283 283 282 282 282 281 281 281 281 282 282
290 289 288 287 287 288 287 287 286 286 286 285 285 283 282 282 282 282 281 281 281 281 281 281 281 281 281
288 288 287 287 287 287 287 286 285 285 284 284 283 282 282 282 281 281 281 281 281 281 281 281 281 281 281
288 288 287 287 286 286 286 285 284 284 283 283 282 280 280 280 280 280 280 280 280 281 281 281 280 281 281
288 287 287 287 286 285 284 284 283 283 283 282 281 280 281 281 280 280 280 280 281 280 280 280 281 281 281

GFSFLT2_925_thetae_150.txt.gz
Theta_e
294 293 293 292 292 291 291 291 291 290 289 288 291 292 293 293 293 293 293 294 294 294 294 295 296 295 297
294 294 292 292 292 292 291 290 290 289 289 288 290 291 292 292 292 292 292 293 293 292 293 293 294 294 295
293 293 293 292 291 291 291 290 290 289 289 288 290 291 292 291 291 291 292 292 292 292 291 291 292 292 293
292 292 292 292 291 291 291 291 290 290 289 289 289 289 290 290 291 291 290 290 290 290 290 290 291 291 292
292 292 292 292 291 291 290 291 291 290 290 290 290 289 290 290 290 291 290 289 289 289 289 289 290 291 291
292 292 292 292 291 291 291 292 293 292 290 290 289 289 289 289 289 289 289 289 289 289 289 289 290 290 290
292 292 292 292 291 291 291 292 292 291 289 289 289 289 289 289 289 289 289 289 289 289 289 289 289 289 290
291 291 291 291 291 291 292 292 291 291 290 289 289 289 290 290 289 288 288 288 288 288 288 289 289 289 289
293 292 291 290 290 291 290 291 291 291 290 288 288 289 289 289 288 287 287 286 287 287 287 288 288 288 288
291 293 293 292 292 292 291 290 290 291 289 289 288 288 288 288 286 286 285 285 285 286 287 287 286 286 287
291 290 292 293 292 291 291 290 290 289 289 289 288 288 287 287 287 285 285 285 285 285 284 285 285 286 286
291 290 290 290 290 290 290 290 289 289 289 289 288 288 287 287 286 286 285 285 284 284 284 284 284 284 285
291 291 291 290 290 289 289 289 289 290 289 289 288 287 287 287 287 286 285 285 284 284 284 284 284 283 283
291 291 290 289 289 289 289 288 287 287 287 287 287 286 286 286 285 285 284 284 283 283 283 283 283 283 283
291 290 290 289 289 289 288 288 288 288 288 286 285 285 285 285 284 284 283 283 283 282 282 282 282 283 283
290 290 289 289 288 288 288 288 288 288 288 286 284 284 283 282 282 283 283 282 282 282 282 282 282 282 282
289 289 289 289 288 288 288 288 288 287 287 286 284 284 285 284 283 282 281 282 282 282 282 282 282 282 283

GFSFLT2_925_thetae_153.txt.gz
Theta_e
296 296 296 294 294 294 293 292 292 292 293 293 292 292 293 293 294 295 295 295 295 296 296 296 296 296 297
296 296 296 295 294 294 293 293 292 292 292 292 292 292 292 293 293 294 294 294 294 295 294 294 294 295 296
295 295 295 295 295 294 293 292 292 291 291 292 292 292 292 293 293 293 293 293 293 294 293 293 293 293 294
295 295 295 294 294 293 293 292 292 291 291 291 290 290 292 292 293 292 292 292 292 292 292 292 291 291 292
295 295 295 294 293 294 293 292 292 292 292 291 290 290 290 291 291 291 292 292 291 291 291 291 291 291 291
296 295 295 294 294 293 293 292 292 292 292 292 291 291 290 290 290 291 291 292 291 290 290 290 290 290 291
296 295 295 295 294 293 293 292 292 293 293 292 291 290 290 290 290 290 290 290 290 290 290 290 290 290 291
295 295 294 294 294 294 293 292 292 292 293 291 291 290 290 290 290 291 290 290 290 290 289 290 290 290 290
295 294 295 295 294 292 292 292 292 292 292 292 291 290 290 290 290 290 290 289 289 289 289 289 289 289 289
294 294 294 293 295 293 291 292 291 292 292 291 290 289 289 289 289 289 288 287 287 287 287 288 288 288 288
293 294 294 293 292 293 291 291 291 291 291 291 290 289 288 288 287 286 286 286 286 286 286 286 288 288 287
292 293 293 293 291 293 292 292 291 291 291 290 289 289 289 288 287 287 286 286 286 285 285 285 285 286 286
291 292 292 292 291 291 291 291 291 291 290 289 289 288 288 288 288 287 286 286 285 285 285 285 284 284 284
291 291 292 292 290 290 289 289 289 289 290 289 289 288 288 288 288 288 286 286 285 285 284 284 284 284 283
290 290 290 291 290 289 289 289 288 288 288 288 288 288 288 287 287 286 286 285 285 284 283 283 283 283 283
289 289 290 290 289 289 289 289 288 288 288 287 286 286 286 285 285 285 285 285 284 284 283 283 283 283 282
289 289 289 289 289 289 288 288 288 289 289 288 286 285 285 283 284 284 283 283 283 282 282 282 282 282 282

GFSFLT2_925_thetae_156.txt.gz
Theta_e
296 296 296 296 296 295 295 295 295 294 293 295 295 295 295 294 294 295 296 297 297 297 297 298 297 298 297
296 295 296 296 296 296 295 295 294 294 294 294 295 295 295 294 294 295 295 295 296 296 295 296 296 296 296
295 295 295 295 296 296 296 295 294 294 293 294 294 294 294 294 294 294 295 295 295 294 294 295 295 295 295
295 295 295 295 295 295 295 294 294 294 293 293 293 293 293 294 294 294 294 295 294 294 294 294 294 294 293
295 296 295 294 294 294 294 294 293 293 293 292 292 292 292 292 293 293 293 294 293 293 294 293 292 292 292
295 295 296 296 296 295 295 294 293 292 292 292 292 291 292 291 292 291 290 292 293 293 293 292 292 292 292
296 295 295 294 295 295 295 294 294 294 293 291 291 291 292 292 291 291 291 292 292 293 293 292 291 291 291
294 294 294 293 294 294 294 294 294 293 292 292 292 291 292 292 291 291 291 291 291 291 291 291 291 290 290
292 292 292 293 293 294 295 294 293 292 292 291 292 291 291 290 290 291 291 292 291 291 291 291 290 290 290
291 291 291 291 292 293 293 294 293 292 292 291 292 291 289 290 290 290 290 291 291 291 290 290 289 289 289
290 291 291 291 291 292 293 292 293 292 292 291 291 290 289 288 289 289 289 289 288 287 288 288 288 288 288
289 290 290 290 291 291 292 292 292 292 292 291 290 290 289 287 287 287 288 287 286 286 286 286 287 287 288
288 289 289 289 290 290 291 291 291 292 291 290 291 290 289 288 287 287 286 286 286 286 286 285 285 285 285
288 289 289 289 289 289 290 290 290 289 290 289 290 289 289 288 287 287 287 286 286 286 285 285 285 284 284
287 288 288 288 288 289 289 289 289 289 288 288 288 288 289 288 288 287 287 286 286 286 285 285 284 284 283
287 287 287 287 288 288 289 289 289 288 288 288 288 287 287 287 287 287 286 286 286 286 285 284 283 283 283
287 287 287 287 288 289 289 289 288 288 288 288 287 287 285 285 285 286 286 285 285 284 284 283 283 283 282

GFSFLT2_925_thetae_159.txt.gz
Theta_e
296 296 296 296 297 297 296 296 296 295 295 295 296 297 297 297 297 297 297 297 298 299 299 299 299 300 299
296 296 296 296 296 296 296 296 296 295 295 295 295 295 296 297 297 297 297 296 297 298 298 298 298 299 299
295 295 295 295 295 295 295 295 295 295 295 295 295 296 296 296 297 297 296 296 296 296 297 297 297 297 298
294 294 295 295 295 294 294 294 294 294 294 294 294 294 295 295 296 296 295 295 296 296 296 296 295 296 297
294 295 294 294 294 294 294 294 294 294 294 294 294 294 294 294 294 294 295 295 295 295 296 296 295 295 295
295 294 294 294 293 293 293 293 294 294 294 292 293 292 293 292 293 293 293 293 295 295 295 295 295 295 294
294 293 293 293 293 293 293 293 293 293 294 293 293 292 293 292 292 292 292 292 293 293 294 294 294 294 293
291 291 291 291 291 292 293 293 293 293 293 294 293 292 291 292 293 292 293 293 292 293 293 294 293 293 292
290 290 290 291 291 291 292 291 292 292 292 293 293 292 292 291 292 293 293 293 292 292 293 293 293 293 292
290 290 289 289 289 290 291 290 290 291 292 292 292 291 292 291 290 290 292 292 292 292 293 292 292 292 291
290 289 288 288 288 289 289 290 290 291 291 292 292 291 291 290 289 289 289 290 291 292 293 292 292 291 290
288 287 287 287 288 288 288 288 289 289 290 291 291 291 291 290 289 288 288 289 289 290 289 288 289 289 289
287 287 287 287 288 287 287 287 288 288 290 290 290 291 290 290 288 286 286 287 288 288 286 286 286 287 287
286 286 286 287 287 287 287 287 288 288 288 289 290 289 289 289 289 287 287 287 287 286 286 286 286 285 285
285 286 286 286 287 287 287 287 288 288 288 289 289 288 288 288 288 287 286 286 287 286 285 285 286 285 285
285 286 287 287 287 287 287 288 288 288 289 288 287 286 287 288 288 287 287 286 286 286 286 285 284 285 285
286 286 287 287 287 286 286 288 288 288 288 288 288 287 287 287 286 287 286 286 286 285 286 285 284 284 284

GFSFLT2_925_thetae_165.txt.gz
Theta_e
294 295 295 295 295 295 295 295 295 294 294 295 296 297 298 299 300 300 300 300 301 301 301 301 302 302 302
293 294 294 294 294 294 293 292 292 292 292 294 295 296 296 297 297 298 299 300 299 299 300 300 301 301 302
292 292 293 293 293 293 293 293 292 292 292 292 292 293 293 294 296 296 297 298 299 299 299 299 299 300 301
292 292 292 292 293 292 292 291 292 292 292 292 292 292 293 293 294 295 295 295 296 297 299 299 299 298 299
291 291 291 291 291 291 290 290 290 290 290 291 291 291 291 291 291 291 292 293 294 295 296 297 298 299 298
290 290 290 290 289 289 289 289 289 289 290 290 291 291 291 291 291 291 292 293 293 294 295 295 296 298 298
290 289 289 289 288 288 288 289 289 289 290 290 289 290 290 290 291 291 292 292 293 293 294 294 295 295 297
289 289 289 289 289 289 289 289 289 289 288 288 288 289 289 290 290 290 291 292 292 293 293 294 294 294 295
289 288 289 289 290 289 290 289 287 286 286 288 288 288 288 289 289 290 290 291 291 292 293 293 293 294 295
288 288 288 287 286 287 287 287 286 286 287 287 287 287 289 289 289 289 289 290 291 291 292 292 293 294 295
287 286 286 285 285 285 285 285 286 286 286 287 287 287 287 288 287 287 288 289 289 289 290 291 292 294 294
285 285 285 285 285 285 285 285 285 285 285 286 286 286 287 287 287 288 288 288 289 289 289 290 290 291 292
285 285 285 285 284 284 284 284 285 285 285 285 286 286 287 287 287 288 288 288 288 289 288 288 288 289 291
285 284 284 284 284 284 284 285 285 286 286 286 285 286 287 287 288 288 288 288 288 288 287 287 288 288 290
284 284 284 284 284 284 285 285 286 286 285 285 286 287 287 287 287 287 287 287 287 287 286 286 286 287 288
284 284 284 284 284 285 285 285 285 285 284 285 286 287 286 287 287 287 287 287 286 286 286 286 286 287 287
283 284 284 284 285 284 283 285 284 284 284 285 286 286 280 283 286 287 286 286 286 286 286 286 285 286 286

GFSFLT2_925_thetae_171.txt.gz
Theta_e
290 290 290 290 290 290 290 291 291 291 292 292 293 294 294 295 295 296 296 297 298 299 300 303 304 305 305
290 290 290 290 290 290 290 290 290 290 290 291 291 291 292 293 294 294 295 295 295 296 297 298 300 302 303
290 290 289 289 289 289 289 289 289 289 289 289 289 290 290 291 291 292 293 293 293 294 294 296 297 298 299
290 289 289 289 289 289 289 288 288 288 288 288 289 289 289 290 290 291 290 290 291 292 293 293 294 295 296
289 289 289 288 288 288 288 288 289 288 288 288 289 288 289 289 289 289 289 289 291 291 292 293 293 293 294
289 289 288 288 288 288 288 288 289 289 288 287 288 288 289 289 287 288 288 289 290 290 291 292 293 293 294
288 288 288 288 288 288 289 288 287 286 286 287 287 287 286 286 286 287 288 289 289 290 290 291 291 291 293
288 288 288 288 288 288 287 287 286 285 285 286 285 286 286 286 286 287 287 288 289 289 290 291 291 291 293
287 287 287 286 286 286 286 286 286 285 285 285 285 286 286 286 286 286 287 287 287 288 288 289 289 290 292
284 284 284 284 284 285 285 285 285 285 285 285 285 285 286 286 286 286 286 286 286 287 288 288 289 289 290
283 283 283 284 284 284 284 283 283 283 284 284 285 285 285 286 286 286 286 286 286 286 287 288 288 289 289
282 283 283 283 283 283 283 283 283 283 284 284 284 285 285 286 286 286 286 286 287 287 287 287 287 288 288
283 283 283 282 282 282 283 283 283 284 284 284 284 285 285 286 286 286 286 286 287 287 287 287 287 286 287
282 282 282 282 282 283 283 283 283 284 284 283 284 284 284 284 285 285 286 287 287 287 287 286 286 286 286
282 282 281 281 281 281 282 282 283 282 282 283 283 283 283 284 285 286 286 286 287 286 286 286 286 286 286
280 280 280 280 280 281 281 281 281 282 283 283 283 283 284 285 285 286 286 286 285 285 286 286 287 286 286
279 279 279 279 280 280 280 280 281 281 282 283 283 283 284 285 284 285 286 286 284 285 285 286 286 286 285